GW4171 Weather Reports


time (UTC)temp
F
wind
direction
speed
knots
gust
knots
rain 1hr
in
rain 24hr
in
rain mn
in
humidity
%
barometer
mb
20260504192936 72 286 11.3 12.2 0.00 0.00 0.00 31 1009.5
20260504192433 72 246 9.6 12.2 0.00 0.00 0.00 31 1009.5
20260504191932 73 230 4.3 15.6 0.00 0.00 0.00 31 1009.7
20260504191430 73 248 9.6 11.3 0.00 0.00 0.00 30 1009.5
20260504190930 73 295 4.3 11.3 0.00 0.00 0.00 31 1009.7
20260504190425 72 227 5.2 11.3 0.00 0.00 0.00 32 1009.7
20260504185922 72 290 7.8 13.0 0.00 0.00 0.00 31 1009.7
20260504185420 72 301 2.6 11.3 0.00 0.00 0.00 31 1009.8
20260504184915 72 205 5.2 7.8 0.00 0.00 0.00 32 1009.9
20260504184411 72 229 9.6 9.6 0.00 0.00 0.00 32 1009.9
20260504183907 71 210 3.5 8.7 0.00 0.00 0.00 32 1010.1
20260504183405 71 261 8.7 14.8 0.00 0.00 0.00 32 1010.3
20260504182903 71 232 3.5 13.0 0.00 0.00 0.00 32 1010.0
20260504182359 71 198 4.3 9.6 0.00 0.00 0.00 32 1010.0
20260504181856 70 253 0.9 9.6 0.00 0.00 0.00 34 1010.2
20260504181354 71 150 0.9 9.6 0.00 0.00 0.00 33 1010.2
20260504180852 71 53 2.6 9.6 0.00 0.00 0.00 33 1010.6
20260504180350 71 224 3.5 7.8 0.00 0.00 0.00 33 1010.7
20260504175848 70 294 3.5 9.6 0.00 0.00 0.00 33 1010.7
20260504175345 69 259 4.3 9.6 0.00 0.00 0.00 34 1010.8
20260504174843 69 258 3.5 13.0 0.00 0.00 0.00 34 1010.7
20260504174340 69 260 7.0 13.9 0.00 0.00 0.00 34 1010.9
20260504173837 70 206 5.2 11.3 0.00 0.00 0.00 34 1010.6
20260504173334 70 184 5.2 9.6 0.00 0.00 0.00 34 1010.5
20260504172831 69 239 5.2 8.7 0.00 0.00 0.00 35 1010.7
20260504172328 70 126 0.9 8.7 0.00 0.00 0.00 34 1010.6
20260504171823 69 237 2.6 7.0 0.00 0.00 0.00 34 1010.7
20260504171321 69 221 2.6 13.0 0.00 0.00 0.00 34 1010.8
20260504170818 68 256 2.6 12.2 0.00 0.00 0.00 35 1010.8
20260504170315 68 245 4.3 13.0 0.00 0.00 0.00 34 1010.8
20260504160233 66 221 2.6 7.8 0.00 0.00 0.00 35 1011.6
20260504150658 65 274 1.7 13.9 0.00 0.00 0.00 37 1012.0
20260504150155 65 228 3.5 7.8 0.00 0.00 0.00 37 1012.5
20260504141124 61 285 7.8 14.8 0.00 0.00 0.00 45 1012.6
20260504140621 61 288 7.0 15.6 0.00 0.00 0.00 44 1012.4
20260504140117 61 283 7.8 11.3 0.00 0.00 0.00 44 1012.5
20260504130545 58 285 7.8 9.6 0.00 0.00 0.00 51 1013.2
20260504110432 53 246 10.4 14.8 0.00 0.00 0.00 55 1013.5
20260504100349 52 241 1.7 4.3 0.00 0.00 0.00 50 1013.3
20260504081742 53 260 5.2 11.3 0.00 0.00 0.00 45 1012.7
20260504081239 53 237 7.0 11.3 0.00 0.00 0.00 45 1012.8
20260504080735 53 257 6.1 6.1 0.00 0.00 0.00 45 1012.9
20260504080232 53 236 11.3 13.0 0.00 0.00 0.00 44 1012.9
20260504070159 54 240 6.1 9.6 0.00 0.00 0.00 44 1012.5
20260504060120 55 312 3.5 7.0 0.00 0.00 0.00 42 1012.4
20260504050548 55 237 5.2 9.6 0.00 0.00 0.00 41 1012.3
20260504045542 55 244 2.6 5.2 0.00 0.00 0.00 41 1012.1
20260504045037 56 231 3.5 8.7 0.00 0.00 0.00 41 1012.0
20260504044535 56 253 2.6 7.8 0.00 0.00 0.00 41 1012.2
20260504044031 56 240 5.2 7.0 0.00 0.00 0.00 41 1012.2
20260504043528 56 248 3.5 7.0 0.00 0.00 0.00 40 1012.1
20260504043026 56 267 7.0 8.7 0.00 0.00 0.00 40 1012.0
20260504042523 56 228 3.5 6.1 0.00 0.00 0.00 40 1011.9
20260504042020 56 237 7.0 9.6 0.00 0.00 0.00 40 1012.0
20260504041515 56 254 6.1 7.8 0.00 0.00 0.00 39 1012.0
20260504041012 56 249 1.7 4.3 0.00 0.00 0.00 39 1012.0
20260504040509 56 269 1.7 7.0 0.00 0.00 0.00 39 1011.8
20260504040006 57 242 1.7 8.7 0.00 0.00 0.00 39 1011.9
20260504035503 56 245 6.1 7.8 0.00 0.00 0.00 39 1011.9
20260504034959 56 257 6.1 7.8 0.00 0.00 0.00 39 1011.6
20260504034457 57 205 0.9 6.1 0.00 0.00 0.00 38 1012.0
20260504033954 57 237 6.1 8.7 0.00 0.00 0.00 38 1012.0
20260504033451 57 238 3.5 5.2 0.00 0.00 0.00 38 1011.9
20260504032949 57 252 4.3 5.2 0.00 0.00 0.00 38 1011.8
20260504032445 57 255 1.7 6.1 0.00 0.00 0.00 38 1011.9
20260504031942 57 252 1.7 6.1 0.00 0.00 0.00 38 1011.7
20260504031439 57 74 0.0 5.2 0.00 0.00 0.00 37 1011.8
20260504030936 57 257 4.3 5.2 0.00 0.00 0.00 38 1011.9
20260504030433 57 298 3.5 5.2 0.00 0.00 0.00 37 1011.8
20260504025928 57 284 1.7 7.0 0.00 0.00 0.00 37 1011.9
20260504025425 57 272 2.6 3.5 0.00 0.00 0.00 37 1011.9
20260504024922 57 253 2.6 4.3 0.00 0.00 0.00 38 1011.8
20260504024420 58 252 2.6 4.3 0.00 0.00 0.00 36 1011.7
20260504023917 58 225 3.5 7.0 0.00 0.00 0.00 35 1012.0
20260504023413 58 251 1.7 3.5 0.00 0.00 0.00 34 1011.8
20260504022909 58 249 4.3 5.2 0.00 0.00 0.00 34 1012.1
20260504022406 58 249 6.1 7.8 0.00 0.00 0.00 34 1011.9
20260504021902 58 241 3.5 6.1 0.00 0.00 0.00 34 1011.8
20260504021359 59 261 5.2 9.6 0.00 0.00 0.00 33 1012.0
20260504020856 59 242 5.2 7.0 0.00 0.00 0.00 33 1012.0
20260504020353 59 273 4.3 9.6 0.00 0.00 0.00 32 1011.9
20260504015849 59 245 3.5 4.3 0.00 0.00 0.00 33 1011.9
20260504015345 59 267 3.5 4.3 0.00 0.00 0.00 32 1011.8
20260504014841 59 273 2.6 6.1 0.00 0.00 0.00 32 1011.8
20260504014337 59 259 3.5 5.2 0.00 0.00 0.00 32 1012.1
20260504013836 59 250 5.2 5.2 0.00 0.00 0.00 31 1011.7
20260504013333 59 243 2.6 5.2 0.00 0.00 0.00 31 1011.6
20260504012830 59 246 4.3 7.0 0.00 0.00 0.00 31 1011.5
20260504012327 59 257 5.2 7.0 0.00 0.00 0.00 31 1011.8
20260504011825 59 247 3.5 4.3 0.00 0.00 0.00 31 1011.6
20260504011321 59 254 2.6 3.5 0.00 0.00 0.00 31 1011.4
20260504010817 59 244 3.5 4.3 0.00 0.00 0.00 32 1011.4
20260504010313 60 238 3.5 4.3 0.00 0.00 0.00 31 1011.3
20260504005809 60 257 5.2 6.1 0.00 0.00 0.00 30 1011.4
20260504005306 60 240 3.5 7.0 0.00 0.00 0.00 30 1011.4
20260504004804 60 250 2.6 7.0 0.00 0.00 0.00 30 1011.3
20260504004301 60 266 4.3 11.3 0.00 0.00 0.00 31 1011.4
20260504003758 60 248 3.5 5.2 0.00 0.00 0.00 30 1011.0
20260504003255 59 242 2.6 3.5 0.00 0.00 0.00 30 1010.8
20260504002751 59 303 2.6 3.5 0.00 0.00 0.00 30 1011.0
20260504002248 60 223 0.0 3.5 0.00 0.00 0.00 30 1011.0
20260504001746 60 246 1.7 4.3 0.00 0.00 0.00 30 1010.7
20260504001243 60 250 2.6 4.3 0.00 0.00 0.00 30 1010.8
20260504000739 60 282 3.5 3.5 0.00 0.00 0.00 29 1010.8
20260504000236 60 313 1.7 3.5 0.00 0.00 0.00 29 1010.5
20260503235735 60 265 2.6 3.5 0.00 0.00 0.00 30 1010.6
20260503235231 60 295 1.7 3.5 0.00 0.00 0.00 29 1010.5
20260503234729 60 304 2.6 4.3 0.00 0.00 0.00 29 1010.5
20260503234227 60 254 0.0 3.5 0.00 0.00 0.00 28 1010.5
20260503233724 60 306 5.2 5.2 0.00 0.00 0.00 28 1010.4
20260503233219 60 226 0.0 2.6 0.00 0.00 0.00 28 1010.3
20260503232717 60 14 5.2 9.6 0.00 0.00 0.00 27 1010.3
20260503232214 61 342 2.6 7.0 0.00 0.00 0.00 27 1010.2
20260503231712 61 270 5.2 11.3 0.00 0.00 0.00 27 1010.4
20260503231208 61 320 4.3 7.0 0.00 0.00 0.00 27 1010.3
20260503230705 61 309 9.6 14.8 0.00 0.00 0.00 27 1010.4
20260503230202 61 329 3.5 7.8 0.00 0.00 0.00 26 1010.1
20260503225659 62 216 4.3 10.4 0.00 0.00 0.00 26 1010.0
20260503225159 61 231 5.2 10.4 0.00 0.00 0.00 27 1010.1
20260503224657 61 77 3.5 5.2 0.00 0.00 0.00 26 1010.0
20260503224155 61 327 6.1 7.8 0.00 0.00 0.00 26 1010.1
20260503223652 60 14 2.6 14.8 0.00 0.00 0.00 26 1010.0
20260503223149 62 297 7.0 10.4 0.00 0.00 0.00 26 1010.4
20260503222646 61 290 10.4 13.0 0.00 0.00 0.00 26 1010.2
20260503222144 61 250 3.5 4.3 0.00 0.00 0.00 25 1009.9
20260503221642 60 351 0.9 9.6 0.00 0.00 0.00 26 1010.0
20260503221139 60 352 3.5 12.2 0.00 0.00 0.00 26 1010.1
20260503220635 60 271 5.2 23.5 0.00 0.00 0.00 26 1010.0
20260503220132 60 294 6.1 10.4 0.00 0.00 0.00 26 1010.3
20260503215630 60 255 5.2 10.4 0.00 0.00 0.00 26 1010.1
20260503215126 60 35 11.3 13.0 0.00 0.00 0.00 26 1010.2
20260503214625 60 339 5.2 15.6 0.00 0.00 0.00 26 1010.1
20260503214121 60 12 3.5 9.6 0.00 0.00 0.00 27 1010.1
20260503213620 60 8 8.7 15.6 0.00 0.00 0.00 26 1010.2
20260503213116 60 46 5.2 11.3 0.00 0.00 0.00 26 1010.2
20260503212614 60 282 4.3 11.3 0.00 0.00 0.00 27 1010.1
20260503212111 60 285 5.2 11.3 0.00 0.00 0.00 27 1009.9
20260503211608 60 359 1.7 8.7 0.00 0.00 0.00 27 1010.0
20260503211103 60 280 12.2 13.0 0.00 0.00 0.00 27 1010.1
20260503210600 60 47 3.5 5.2 0.00 0.00 0.00 27 1010.0
20260503210056 59 340 0.9 13.0 0.00 0.00 0.00 28 1009.9
20260503205553 59 299 7.0 9.6 0.00 0.00 0.00 27 1009.6
20260503205049 59 310 4.3 13.9 0.00 0.00 0.00 28 1009.8
20260503204546 60 242 1.7 11.3 0.00 0.00 0.00 27 1009.8
20260503204043 61 298 0.9 5.2 0.00 0.00 0.00 27 1009.7
20260503203540 58 299 13.9 16.5 0.00 0.00 0.00 28 1010.1
20260503203037 59 281 9.6 19.1 0.00 0.00 0.00 28 1010.0
20260503202535 60 281 2.6 11.3 0.00 0.00 0.00 27 1010.0
20260503202033 59 20 1.7 9.6 0.00 0.00 0.00 28 1009.7
20260503201531 58 292 7.8 10.4 0.00 0.00 0.00 29 1010.0
20260503201028 59 259 5.2 7.8 0.00 0.00 0.00 28 1009.9
20260503200524 58 313 5.2 12.2 0.00 0.00 0.00 28 1010.1
20260503200021 59 255 14.8 18.2 0.00 0.00 0.00 28 1010.0
20260503195518 60 103 5.2 6.1 0.00 0.00 0.00 28 1010.2
20260503195015 58 322 8.7 12.2 0.00 0.00 0.00 29 1010.1
20260503194512 58 243 5.2 12.2 0.00 0.00 0.00 29 1009.9
20260503194012 58 22 7.0 14.8 0.00 0.00 0.00 29 1010.3
20260503193508 57 26 8.7 20.9 0.00 0.00 0.00 29 1010.3